Location: Unspecified
(0.0000°N, 0.0000°E)
Time: 10:20:23
(UTC+00:00)

ACS3 Solar Sail - Pass Details

Date: 13 May 2025
Orbit: 935 x 1009 km, 97.5° (Epoch: 13 May)

Event Time Altitude Azimuth Distance (km) Brightness Sun altitude
Rises 05:11:05 0° 18° (NNE) 3,625 5.4 -10.7°
Reaches altitude 10° 05:13:32 10° 21° (NNE) 2,692 4.7 -10.2°
Maximum altitude 05:19:31 63° 102° (ESE) 1,082 2.4 -8.7°
Drops below altitude 10° 05:25:38 10° 182° (S) 2,752 4.0 -7.3°
Sets 05:28:09 0° 185° (S) 3,711 4.6 -6.7°
